Location: Unspecified
(54.1780°N, 0.0000°E)
Time: 17:54:55
(UTC+00:00)

Altair - Pass Details

Date: 19 June 2019
Orbit: 1501 x 1683 km, 47.2° (Epoch: 16 August)

Event Time Altitude Azimuth Distance (km) Brightness Sun altitude
Rises 19:42:54 0° 204° (SSW) 4,709 10.0 5.3°
Reaches altitude 10° 19:46:28 10° 193° (SSW) 3,755 9.4 4.9°
Maximum altitude 19:54:06 28° 139° (SE) 2,660 8.3 3.9°
Drops below altitude 10° 20:01:58 10° 86° (E) 3,883 9.2 3.0°
Sets 20:05:42 0° 76° (ENE) 4,895 9.8 2.6°
